Time,TemperatureF,DewpointF,PressureIn,WindDirection,WindDirectionDegrees,WindSpeedMPH,WindSpeedGustMPH,Humidity,HourlyPrecipIn,Conditions,Clouds,dailyrainin,SoftwareType,DateUTC
2013-04-08 00:02:00,61.2,34.7,29.26,South,180,4.0,4.0,37,0.00,,,0.00,meteobridge,2013-04-07 21:02:00,
2013-04-08 00:07:00,61.2,34.7,29.26,West,270,2.5,2.5,37,0.00,,,0.00,meteobridge,2013-04-07 21:07:00,
2013-04-08 00:12:00,61.2,34.7,29.26,ESE,112,1.1,1.6,37,0.00,,,0.00,meteobridge,2013-04-07 21:12:00,
2013-04-08 00:18:00,61.3,34.9,29.26,SE,135,0.9,2.9,37,0.00,,,0.00,meteobridge,2013-04-07 21:18:00,
2013-04-08 00:23:00,61.3,34.2,29.26,NNE,22,0.0,1.1,36,0.00,,,0.00,meteobridge,2013-04-07 21:23:00,
2013-04-08 00:28:00,61.3,34.2,29.26,SSE,158,3.1,3.1,36,0.00,,,0.00,meteobridge,2013-04-07 21:28:00,
2013-04-08 00:33:00,61.3,33.4,29.26,WNW,292,0.9,1.6,35,0.00,,,0.00,meteobridge,2013-04-07 21:33:00,
2013-04-08 00:38:00,61.5,33.6,29.26,WSW,248,2.7,2.7,35,0.00,,,0.00,meteobridge,2013-04-07 21:38:00,
2013-04-08 00:43:00,61.3,34.2,29.29,South,180,1.1,2.9,36,0.00,,,0.00,meteobridge,2013-04-07 21:43:00,
2013-04-08 00:48:00,61.3,34.2,29.29,East,90,1.1,3.8,36,0.00,,,0.00,meteobridge,2013-04-07 21:48:00,
2013-04-08 00:53:00,61.3,34.2,29.29,East,90,2.5,2.5,36,0.00,,,0.00,meteobridge,2013-04-07 21:53:00,
2013-04-08 00:58:00,61.3,34.2,29.26,ENE,68,0.0,2.2,36,0.00,,,0.00,meteobridge,2013-04-07 21:58:00,
2013-04-08 01:03:00,61.2,34.0,29.26,NNE,22,2.2,2.9,36,0.00,,,0.00,meteobridge,2013-04-07 22:03:00,
2013-04-08 01:08:00,61.2,34.0,29.26,NNW,338,2.5,2.5,36,0.00,,,0.00,meteobridge,2013-04-07 22:08:00,
2013-04-08 01:13:00,61.0,34.5,29.26,SSE,158,3.4,5.4,37,0.00,,,0.00,meteobridge,2013-04-07 22:13:00,
2013-04-08 01:18:00,61.0,34.5,29.26,SW,225,1.1,2.7,37,0.00,,,0.00,meteobridge,2013-04-07 22:18:00,
2013-04-08 01:24:00,61.0,35.2,29.26,SSE,158,2.2,3.6,38,0.00,,,0.00,meteobridge,2013-04-07 22:24:00,
2013-04-08 01:29:00,60.8,35.8,29.29,NE,45,1.3,6.0,39,0.00,,,0.00,meteobridge,2013-04-07 22:29:00,
2013-04-08 01:34:00,60.8,35.8,29.29,SW,225,1.6,4.9,39,0.00,,,0.00,meteobridge,2013-04-07 22:34:00,
2013-04-08 01:39:00,60.8,36.3,29.26,SW,225,1.1,2.2,40,0.00,,,0.00,meteobridge,2013-04-07 22:39:00,
2013-04-08 01:44:00,60.8,36.3,29.26,NNW,338,2.2,3.6,40,0.00,,,0.00,meteobridge,2013-04-07 22:44:00,
2013-04-08 01:49:00,60.6,36.1,29.26,East,90,2.0,2.5,40,0.00,,,0.00,meteobridge,2013-04-07 22:49:00,
2013-04-08 01:55:00,60.6,36.9,29.26,South,180,1.6,2.0,41,0.00,,,0.00,meteobridge,2013-04-07 22:55:00,
2013-04-08 02:00:00,60.6,36.9,29.29,SE,135,0.9,1.1,41,0.00,,,0.00,meteobridge,2013-04-07 23:00:00,
2013-04-08 02:05:00,60.6,38.1,29.29,SE,135,2.0,2.5,43,0.00,,,0.00,meteobridge,2013-04-07 23:05:00,
2013-04-08 02:10:00,60.4,37.9,29.26,East,90,1.1,1.3,43,0.00,,,0.00,meteobridge,2013-04-07 23:10:00,
2013-04-08 02:15:00,60.6,38.7,29.26,WNW,292,2.0,2.0,44,0.00,,,0.00,meteobridge,2013-04-07 23:15:00,
2013-04-08 02:20:00,60.4,38.5,29.26,NNW,338,1.6,1.6,44,0.00,,,0.00,meteobridge,2013-04-07 23:20:00,
2013-04-08 02:25:00,60.4,39.0,29.26,SSW,202,1.3,3.1,45,0.00,,,0.00,meteobridge,2013-04-07 23:25:00,
2013-04-08 02:31:00,60.4,39.0,29.26,WSW,248,0.9,0.9,45,0.00,,,0.00,meteobridge,2013-04-07 23:31:00,
2013-04-08 02:36:00,60.3,39.4,29.26,SSE,158,2.0,3.4,46,0.00,,,0.00,meteobridge,2013-04-07 23:36:00,
2013-04-08 02:41:00,60.3,39.4,29.26,NNE,22,1.3,2.0,46,0.00,,,0.00,meteobridge,2013-04-07 23:41:00,
2013-04-08 02:46:00,60.3,39.4,29.26,NNE,22,0.0,1.3,46,0.00,,,0.00,meteobridge,2013-04-07 23:46:00,
2013-04-08 02:51:00,60.1,39.2,29.26,SE,135,0.0,1.3,46,0.00,,,0.00,meteobridge,2013-04-07 23:51:00,
2013-04-08 02:56:00,60.1,39.7,29.26,West,270,1.3,3.1,47,0.00,,,0.00,meteobridge,2013-04-07 23:56:00,
2013-04-08 03:01:00,60.1,39.7,29.26,South,180,2.5,3.6,47,0.00,,,0.00,meteobridge,2013-04-08 00:01:00,
2013-04-08 03:07:00,59.9,40.1,29.26,ESE,112,1.3,2.7,48,0.00,,,0.00,meteobridge,2013-04-08 00:07:00,
2013-04-08 03:12:00,59.9,40.1,29.26,ESE,112,0.0,0.0,48,0.00,,,0.00,meteobridge,2013-04-08 00:12:00,
2013-04-08 03:17:00,59.9,40.1,29.26,SSE,158,2.0,3.1,48,0.00,,,0.00,meteobridge,2013-04-08 00:17:00,
2013-04-08 03:22:00,59.9,40.1,29.26,SSE,158,2.2,2.5,48,0.00,,,0.00,meteobridge,2013-04-08 00:22:00,
2013-04-08 03:27:00,59.7,40.1,29.26,SSE,158,1.6,2.5,48,0.00,,,0.00,meteobridge,2013-04-08 00:27:00,
2013-04-08 03:32:00,59.7,40.1,29.26,WNW,292,1.3,2.2,48,0.00,,,0.00,meteobridge,2013-04-08 00:32:00,
2013-04-08 03:37:00,59.5,39.9,29.26,North,0,0.0,0.0,48,0.00,,,0.00,meteobridge,2013-04-08 00:37:00,
2013-04-08 03:43:00,59.4,39.2,29.26,WNW,292,0.9,2.7,47,0.00,,,0.00,meteobridge,2013-04-08 00:43:00,
2013-04-08 03:48:00,59.4,39.2,29.26,NW,315,0.0,0.0,47,0.00,,,0.00,meteobridge,2013-04-08 00:48:00,
2013-04-08 03:53:00,59.2,39.0,29.26,WNW,292,0.0,1.3,47,0.00,,,0.00,meteobridge,2013-04-08 00:53:00,
2013-04-08 03:58:00,59.0,38.8,29.26,West,270,0.0,1.3,47,0.00,,,0.00,meteobridge,2013-04-08 00:58:00,
2013-04-08 04:03:00,59.0,38.8,29.26,West,270,1.3,1.3,47,0.00,,,0.00,meteobridge,2013-04-08 01:03:00,
2013-04-08 04:08:00,59.0,38.8,29.26,SSE,158,2.7,2.7,47,0.00,,,0.00,meteobridge,2013-04-08 01:08:00,
2013-04-08 04:13:00,59.0,38.8,29.26,WNW,292,0.0,1.6,47,0.00,,,0.00,meteobridge,2013-04-08 01:13:00,
2013-04-08 04:18:00,59.0,38.8,29.26,WNW,292,0.0,1.3,47,0.00,,,0.00,meteobridge,2013-04-08 01:18:00,
2013-04-08 04:23:00,59.0,38.8,29.26,SW,225,0.0,1.3,47,0.00,,,0.00,meteobridge,2013-04-08 01:23:00,
2013-04-08 04:28:00,59.0,38.8,29.26,SW,225,0.0,0.0,47,0.00,,,0.00,meteobridge,2013-04-08 01:28:00,
2013-04-08 04:34:00,59.2,39.0,29.26,WSW,248,2.5,3.1,47,0.00,,,0.00,meteobridge,2013-04-08 01:34:00,
2013-04-08 04:39:00,59.2,39.0,29.26,NW,315,2.5,2.5,47,0.00,,,0.00,meteobridge,2013-04-08 01:39:00,
2013-04-08 04:44:00,59.0,38.8,29.26,ENE,68,0.0,1.3,47,0.00,,,0.00,meteobridge,2013-04-08 01:44:00,
2013-04-08 04:49:00,59.2,39.0,29.26,SSW,202,0.0,1.1,47,0.00,,,0.00,meteobridge,2013-04-08 01:49:00,
2013-04-08 04:54:00,59.0,38.8,29.23,South,180,0.0,0.9,47,0.00,,,0.00,meteobridge,2013-04-08 01:54:00,
2013-04-08 04:59:00,59.0,38.3,29.23,SSE,158,2.0,2.0,46,0.00,,,0.00,meteobridge,2013-04-08 01:59:00,
2013-04-08 05:04:00,59.2,39.0,29.23,SSE,158,1.3,1.3,47,0.00,,,0.00,meteobridge,2013-04-08 02:04:00,
2013-04-08 05:09:00,59.2,39.0,29.26,WNW,292,2.2,2.7,47,0.00,,,0.00,meteobridge,2013-04-08 02:09:00,
2013-04-08 05:14:00,59.2,39.0,29.26,NNW,338,0.0,1.3,47,0.00,,,0.00,meteobridge,2013-04-08 02:14:00,
2013-04-08 05:19:00,59.2,39.0,29.26,North,0,0.0,0.0,47,0.00,,,0.00,meteobridge,2013-04-08 02:19:00,
2013-04-08 05:24:00,59.2,39.0,29.26,NNW,338,0.0,1.1,47,0.00,,,0.00,meteobridge,2013-04-08 02:24:00,
2013-04-08 05:29:00,59.2,39.0,29.26,NW,315,0.9,1.1,47,0.00,,,0.00,meteobridge,2013-04-08 02:29:00,
2013-04-08 05:35:00,59.2,39.0,29.26,WNW,292,0.0,0.0,47,0.00,,,0.00,meteobridge,2013-04-08 02:35:00,
2013-04-08 05:40:00,59.2,39.0,29.26,WNW,292,0.0,0.0,47,0.00,,,0.00,meteobridge,2013-04-08 02:40:00,
2013-04-08 05:47:00,59.2,39.0,29.26,NW,315,0.0,-999.0,47,0.00,,,0.00,meteobridge,2013-04-08 02:47:00,
2013-04-08 05:52:00,59.2,39.0,29.26,NNE,22,1.6,1.6,47,0.00,,,0.00,meteobridge,2013-04-08 02:52:00,
2013-04-08 05:57:00,59.2,38.5,29.26,NNE,22,0.0,0.9,46,0.00,,,0.00,meteobridge,2013-04-08 02:57:00,
2013-04-08 06:02:00,59.2,38.5,29.26,NNW,338,1.3,1.6,46,0.00,,,0.00,meteobridge,2013-04-08 03:02:00,
2013-04-08 06:07:00,59.2,38.5,29.26,NNW,338,0.0,0.9,46,0.00,,,0.00,meteobridge,2013-04-08 03:07:00,
2013-04-08 06:12:00,59.2,37.9,29.26,NNW,338,0.0,0.0,45,0.00,,,0.00,meteobridge,2013-04-08 03:12:00,
2013-04-08 06:18:00,59.0,37.8,29.26,North,0,1.3,1.6,45,0.00,,,0.00,meteobridge,2013-04-08 03:18:00,
2013-04-08 06:23:00,59.0,37.8,29.26,North,0,1.1,1.1,45,0.00,,,0.00,meteobridge,2013-04-08 03:23:00,
2013-04-08 06:28:00,58.8,37.6,29.32,NNE,22,1.1,1.3,45,0.00,,,0.00,meteobridge,2013-04-08 03:28:00,
2013-04-08 06:33:00,58.8,38.1,29.32,NE,45,2.0,2.0,46,0.00,,,0.00,meteobridge,2013-04-08 03:33:00,
2013-04-08 06:38:00,58.6,38.5,29.32,North,0,0.0,2.5,47,0.00,,,0.00,meteobridge,2013-04-08 03:38:00,
2013-04-08 06:43:00,58.5,38.3,29.29,North,0,0.0,2.5,47,0.00,,,0.00,meteobridge,2013-04-08 03:43:00,
2013-04-08 06:48:00,58.5,39.4,29.29,NNE,22,1.6,3.1,49,0.00,,,0.00,meteobridge,2013-04-08 03:48:00,
2013-04-08 06:53:00,58.3,39.7,29.29,NNW,338,2.7,3.1,50,0.00,,,0.00,meteobridge,2013-04-08 03:53:00,
2013-04-08 06:58:00,58.1,40.6,29.29,NNW,338,1.3,2.7,52,0.00,,,0.00,meteobridge,2013-04-08 03:58:00,
2013-04-08 07:00:00,58.1,40.1,29.29,NNW,338,1.1,2.0,51,0.00,,,0.00,meteobridge,2013-04-08 04:00:00,
2013-04-08 07:01:00,58.1,40.6,29.29,NNE,22,2.0,2.5,52,0.00,,,0.00,meteobridge,2013-04-08 04:01:00,
2013-04-08 07:06:00,57.9,41.0,29.29,NNW,338,1.6,2.9,53,0.00,,,0.00,meteobridge,2013-04-08 04:06:00,
2013-04-08 07:11:00,57.9,41.9,29.29,NNW,338,3.4,3.8,55,0.00,,,0.00,meteobridge,2013-04-08 04:11:00,
2013-04-08 07:17:00,57.7,42.3,29.29,NNW,338,1.1,1.3,56,0.00,,,0.00,meteobridge,2013-04-08 04:17:00,
2013-04-08 07:22:00,57.7,42.3,29.29,NNW,338,2.0,2.9,56,0.00,,,0.00,meteobridge,2013-04-08 04:22:00,
2013-04-08 07:27:00,57.6,42.4,29.32,NNW,338,1.6,2.0,57,0.00,,,0.00,meteobridge,2013-04-08 04:27:00,
2013-04-08 07:32:00,57.6,43.0,29.32,North,0,0.0,0.9,58,0.00,,,0.00,meteobridge,2013-04-08 04:32:00,
2013-04-08 07:37:00,57.6,43.3,29.32,North,0,0.0,0.9,59,0.00,,,0.00,meteobridge,2013-04-08 04:37:00,
2013-04-08 07:42:00,57.6,43.3,29.32,NNE,22,0.0,1.6,59,0.00,,,0.00,meteobridge,2013-04-08 04:42:00,
2013-04-08 07:47:00,57.6,43.9,29.32,NNW,338,0.0,2.0,60,0.00,,,0.00,meteobridge,2013-04-08 04:47:00,
2013-04-08 07:52:00,57.6,44.2,29.32,NNW,338,1.6,1.6,61,0.00,,,0.00,meteobridge,2013-04-08 04:52:00,
2013-04-08 07:57:00,57.7,44.8,29.35,North,0,2.2,2.2,62,0.00,,,0.00,meteobridge,2013-04-08 04:57:00,
2013-04-08 08:02:00,57.9,44.6,29.35,East,90,2.0,2.0,61,0.00,,,0.00,meteobridge,2013-04-08 05:02:00,
2013-04-08 08:08:00,57.9,44.6,29.35,North,0,2.0,2.5,61,0.00,,,0.00,meteobridge,2013-04-08 05:08:00,
2013-04-08 08:13:00,58.1,43.9,29.35,NW,315,1.3,2.9,59,0.00,,,0.00,meteobridge,2013-04-08 05:13:00,
2013-04-08 08:18:00,58.1,43.0,29.35,North,0,3.4,5.6,57,0.00,,,0.00,meteobridge,2013-04-08 05:18:00,
2013-04-08 08:23:00,58.3,42.6,29.35,NNE,22,2.7,2.7,56,0.00,,,0.00,meteobridge,2013-04-08 05:23:00,
2013-04-08 08:29:00,58.5,41.9,29.35,North,0,3.4,3.4,54,0.00,,,0.00,meteobridge,2013-04-08 05:29:00,
2013-04-08 08:34:00,58.6,40.6,29.35,NNE,22,2.5,4.0,51,0.00,,,0.00,meteobridge,2013-04-08 05:34:00,
2013-04-08 08:39:00,58.8,39.7,29.35,NNW,338,2.5,3.4,49,0.00,,,0.00,meteobridge,2013-04-08 05:39:00,
2013-04-08 08:44:00,59.0,39.4,29.35,ESE,112,4.0,6.0,48,0.00,,,0.00,meteobridge,2013-04-08 05:44:00,
2013-04-08 08:49:00,59.2,39.0,29.35,East,90,3.1,3.1,47,0.00,,,0.00,meteobridge,2013-04-08 05:49:00,
2013-04-08 08:55:00,59.4,38.7,29.35,NNW,338,2.2,4.3,46,0.00,,,0.00,meteobridge,2013-04-08 05:55:00,
2013-04-08 09:00:00,59.5,38.8,29.35,North,0,3.6,7.8,46,0.00,,,0.00,meteobridge,2013-04-08 06:00:00,
2013-04-08 09:05:00,59.7,38.3,29.35,North,0,2.2,3.4,45,0.00,,,0.00,meteobridge,2013-04-08 06:05:00,
2013-04-08 09:10:00,59.9,38.5,29.38,North,0,4.0,4.0,45,0.00,,,0.00,meteobridge,2013-04-08 06:10:00,
2013-04-08 09:15:00,59.7,38.3,29.38,NNW,338,3.6,3.8,45,0.00,,,0.00,meteobridge,2013-04-08 06:15:00,
2013-04-08 09:20:00,59.7,37.8,29.38,NNE,22,1.3,3.8,44,0.00,,,0.00,meteobridge,2013-04-08 06:20:00,
2013-04-08 09:25:00,59.7,37.8,29.38,NNW,338,3.4,3.8,44,0.00,,,0.00,meteobridge,2013-04-08 06:25:00,
2013-04-08 09:30:00,59.7,38.3,29.38,NNW,338,3.6,3.6,45,0.00,,,0.00,meteobridge,2013-04-08 06:30:00,
2013-04-08 09:36:00,59.7,37.8,29.38,NNW,338,2.7,2.7,44,0.00,,,0.00,meteobridge,2013-04-08 06:36:00,
2013-04-08 09:41:00,59.9,37.9,29.41,North,0,3.4,3.4,44,0.00,,,0.00,meteobridge,2013-04-08 06:41:00,
2013-04-08 09:46:00,59.7,38.3,29.41,North,0,1.6,3.1,45,0.00,,,0.00,meteobridge,2013-04-08 06:46:00,
2013-04-08 09:51:00,59.9,38.5,29.41,NNE,22,3.1,3.1,45,0.00,,,0.00,meteobridge,2013-04-08 06:51:00,
2013-04-08 09:56:00,59.7,38.3,29.41,North,0,4.3,4.3,45,0.00,,,0.00,meteobridge,2013-04-08 06:56:00,
2013-04-08 10:01:00,60.1,38.7,29.41,North,0,3.1,6.5,45,0.00,,,0.00,meteobridge,2013-04-08 07:01:00,
2013-04-08 10:06:00,60.4,38.5,29.41,NNW,338,4.7,6.5,44,0.00,,,0.00,meteobridge,2013-04-08 07:06:00,
2013-04-08 10:11:00,60.8,37.6,29.38,West,270,2.9,6.5,42,0.00,,,0.00,meteobridge,2013-04-08 07:11:00,
2013-04-08 10:16:00,61.9,37.9,29.38,NNE,22,0.9,4.3,41,0.00,,,0.00,meteobridge,2013-04-08 07:16:00,
2013-04-08 10:22:00,62.6,37.4,29.38,NNW,338,2.9,2.9,39,0.00,,,0.00,meteobridge,2013-04-08 07:22:00,
2013-04-08 10:27:00,62.6,36.0,29.41,NNW,338,3.1,4.9,37,0.00,,,0.00,meteobridge,2013-04-08 07:27:00,
2013-04-08 10:32:00,62.6,35.2,29.41,ENE,68,2.2,5.4,36,0.00,,,0.00,meteobridge,2013-04-08 07:32:00,
2013-04-08 10:37:00,62.8,35.4,29.41,NNW,338,6.0,6.0,36,0.00,,,0.00,meteobridge,2013-04-08 07:37:00,
2013-04-08 10:42:00,63.1,35.1,29.41,NNW,338,5.4,6.3,35,0.00,,,0.00,meteobridge,2013-04-08 07:42:00,
2013-04-08 10:47:00,63.7,35.6,29.41,WNW,292,4.9,4.9,35,0.00,,,0.00,meteobridge,2013-04-08 07:47:00,
2013-04-08 10:52:00,64.2,35.2,29.41,North,0,2.2,3.6,34,0.00,,,0.00,meteobridge,2013-04-08 07:52:00,
2013-04-08 10:57:00,63.5,34.7,29.44,NNE,22,2.7,2.9,34,0.00,,,0.00,meteobridge,2013-04-08 07:57:00,
2013-04-08 11:02:00,63.0,34.9,29.44,ENE,68,2.5,3.4,35,0.00,,,0.00,meteobridge,2013-04-08 08:02:00,
2013-04-08 11:07:00,62.8,34.7,29.44,ENE,68,1.6,2.9,35,0.00,,,0.00,meteobridge,2013-04-08 08:07:00,
2013-04-08 11:13:00,63.1,35.1,29.47,NW,315,3.8,3.8,35,0.00,,,0.00,meteobridge,2013-04-08 08:13:00,
2013-04-08 11:18:00,64.2,36.0,29.47,NE,45,2.7,4.9,35,0.00,,,0.00,meteobridge,2013-04-08 08:18:00,
2013-04-08 11:23:00,64.2,35.2,29.47,North,0,2.5,4.0,34,0.00,,,0.00,meteobridge,2013-04-08 08:23:00,
2013-04-08 11:28:00,63.5,34.7,29.47,NNW,338,4.0,5.6,34,0.00,,,0.00,meteobridge,2013-04-08 08:28:00,
2013-04-08 11:33:00,63.7,34.9,29.47,East,90,1.3,3.6,34,0.00,,,0.00,meteobridge,2013-04-08 08:33:00,
2013-04-08 11:38:00,65.1,36.1,29.47,NNE,22,1.6,3.4,34,0.00,,,0.00,meteobridge,2013-04-08 08:38:00,
2013-04-08 11:43:00,64.9,35.2,29.47,NNW,338,5.6,5.6,33,0.00,,,0.00,meteobridge,2013-04-08 08:43:00,
2013-04-08 11:48:00,65.1,35.4,29.47,NE,45,1.6,3.4,33,0.00,,,0.00,meteobridge,2013-04-08 08:48:00,
2013-04-08 11:53:00,64.8,34.3,29.47,North,0,1.6,5.6,32,0.00,,,0.00,meteobridge,2013-04-08 08:53:00,
2013-04-08 11:58:00,64.6,33.3,29.47,NNW,338,4.9,6.3,31,0.00,,,0.00,meteobridge,2013-04-08 08:58:00,
2013-04-08 12:03:00,64.4,33.1,29.47,NNE,22,2.5,5.6,31,0.00,,,0.00,meteobridge,2013-04-08 09:03:00,
2013-04-08 12:08:00,64.0,32.9,29.47,North,0,1.6,5.4,31,0.00,,,0.00,meteobridge,2013-04-08 09:08:00,
2013-04-08 12:13:00,64.4,33.1,29.47,NNW,338,3.6,6.5,31,0.00,,,0.00,meteobridge,2013-04-08 09:13:00,
2013-04-08 12:18:00,64.2,33.8,29.47,NNW,338,3.1,4.9,32,0.00,,,0.00,meteobridge,2013-04-08 09:18:00,
2013-04-08 12:23:00,64.2,33.1,29.47,NNE,22,3.6,6.5,31,0.00,,,0.00,meteobridge,2013-04-08 09:23:00,
2013-04-08 12:29:00,64.9,33.6,29.47,NW,315,3.1,4.3,31,0.00,,,0.00,meteobridge,2013-04-08 09:29:00,
2013-04-08 12:34:00,64.9,32.7,29.47,North,0,2.2,8.1,30,0.00,,,0.00,meteobridge,2013-04-08 09:34:00,
2013-04-08 12:40:00,64.8,31.8,29.47,NNW,338,3.4,6.3,29,0.00,,,0.00,meteobridge,2013-04-08 09:40:00,
2013-04-08 12:45:00,64.6,31.6,29.50,NNW,338,3.8,6.0,29,0.00,,,0.00,meteobridge,2013-04-08 09:45:00,
2013-04-08 12:50:00,64.4,32.4,29.50,NNW,338,3.1,5.4,30,0.00,,,0.00,meteobridge,2013-04-08 09:50:00,
2013-04-08 12:55:00,64.4,32.4,29.50,North,0,3.4,3.8,30,0.00,,,0.00,meteobridge,2013-04-08 09:55:00,
2013-04-08 13:00:00,64.4,32.4,29.50,NNE,22,2.0,3.8,30,0.00,,,0.00,meteobridge,2013-04-08 10:00:00,
2013-04-08 13:05:00,64.2,33.1,29.50,North,0,4.0,5.6,31,0.00,,,0.00,meteobridge,2013-04-08 10:05:00,
2013-04-08 13:10:00,64.8,32.7,29.50,NNE,22,5.6,5.6,30,0.00,,,0.00,meteobridge,2013-04-08 10:10:00,
2013-04-08 13:15:00,65.1,32.9,29.50,North,0,5.4,5.4,30,0.00,,,0.00,meteobridge,2013-04-08 10:15:00,
2013-04-08 13:21:00,64.4,32.4,29.50,NNW,338,4.0,4.9,30,0.00,,,0.00,meteobridge,2013-04-08 10:21:00,
2013-04-08 13:26:00,64.8,32.7,29.53,NE,45,1.1,3.6,30,0.00,,,0.00,meteobridge,2013-04-08 10:26:00,
2013-04-08 13:31:00,64.8,32.7,29.53,ENE,68,1.3,3.1,30,0.00,,,0.00,meteobridge,2013-04-08 10:31:00,
2013-04-08 13:36:00,64.9,32.7,29.53,East,90,3.6,3.8,30,0.00,,,0.00,meteobridge,2013-04-08 10:36:00,
2013-04-08 13:41:00,64.8,31.8,29.53,ENE,68,2.9,4.9,29,0.00,,,0.00,meteobridge,2013-04-08 10:41:00,
2013-04-08 13:46:00,64.2,32.2,29.53,NNW,338,1.6,3.6,30,0.00,,,0.00,meteobridge,2013-04-08 10:46:00,
2013-04-08 13:51:00,63.9,31.8,29.53,NW,315,2.5,5.4,30,0.00,,,0.00,meteobridge,2013-04-08 10:51:00,
2013-04-08 13:57:00,63.3,31.5,29.53,North,0,1.6,3.4,30,0.00,,,0.00,meteobridge,2013-04-08 10:57:00,
2013-04-08 14:02:00,62.8,31.8,29.53,ENE,68,1.6,3.8,31,0.00,,,0.00,meteobridge,2013-04-08 11:02:00,
2013-04-08 14:07:00,62.6,31.6,29.53,NE,45,2.0,2.9,31,0.00,,,0.00,meteobridge,2013-04-08 11:07:00,
2013-04-08 14:12:00,62.4,32.2,29.53,NNW,338,2.7,3.8,32,0.00,,,0.00,meteobridge,2013-04-08 11:12:00,
2013-04-08 14:17:00,63.0,33.4,29.53,NNE,22,0.0,1.3,33,0.00,,,0.00,meteobridge,2013-04-08 11:17:00,
2013-04-08 14:23:00,63.3,33.8,29.53,NE,45,2.2,2.5,33,0.00,,,0.00,meteobridge,2013-04-08 11:23:00,
2013-04-08 14:28:00,63.0,33.4,29.53,North,0,2.2,4.3,33,0.00,,,0.00,meteobridge,2013-04-08 11:28:00,
2013-04-08 14:33:00,63.1,33.6,29.53,North,0,0.9,1.6,33,0.00,,,0.00,meteobridge,2013-04-08 11:33:00,
2013-04-08 14:39:00,63.1,33.6,29.53,NNE,22,1.3,1.3,33,0.00,,,0.00,meteobridge,2013-04-08 11:39:00,
2013-04-08 14:45:00,63.1,33.6,29.53,NNE,22,2.0,4.3,33,0.00,,,0.00,meteobridge,2013-04-08 11:45:00,
2013-04-08 14:51:00,63.1,33.6,29.53,NNW,338,1.3,1.6,33,0.00,,,0.00,meteobridge,2013-04-08 11:51:00,
2013-04-08 14:56:00,63.0,33.4,29.53,NNE,22,2.5,3.1,33,0.00,,,0.00,meteobridge,2013-04-08 11:56:00,
2013-04-08 15:01:00,63.1,33.6,29.53,NNW,338,0.9,3.4,33,0.00,,,0.00,meteobridge,2013-04-08 12:01:00,
2013-04-08 15:06:00,63.1,34.3,29.53,North,0,1.3,3.1,34,0.00,,,0.00,meteobridge,2013-04-08 12:06:00,
2013-04-08 15:11:00,63.0,33.4,29.56,NNW,338,2.7,4.0,33,0.00,,,0.00,meteobridge,2013-04-08 12:11:00,
2013-04-08 15:16:00,63.0,34.2,29.56,North,0,3.8,3.8,34,0.00,,,0.00,meteobridge,2013-04-08 12:16:00,
2013-04-08 15:21:00,63.7,34.9,29.56,NNW,338,1.6,2.5,34,0.00,,,0.00,meteobridge,2013-04-08 12:21:00,
2013-04-08 15:26:00,63.7,34.9,29.53,North,0,2.7,2.7,34,0.00,,,0.00,meteobridge,2013-04-08 12:26:00,
2013-04-08 15:31:00,63.9,35.1,29.53,NNW,338,2.7,2.7,34,0.00,,,0.00,meteobridge,2013-04-08 12:31:00,
2013-04-08 15:36:00,63.7,34.2,29.53,North,0,2.2,4.0,33,0.00,,,0.00,meteobridge,2013-04-08 12:36:00,
2013-04-08 15:41:00,64.4,34.7,29.53,NNE,22,0.0,1.6,33,0.00,,,0.00,meteobridge,2013-04-08 12:41:00,
2013-04-08 15:46:00,64.8,35.1,29.53,North,0,2.2,2.5,33,0.00,,,0.00,meteobridge,2013-04-08 12:46:00,
2013-04-08 15:51:00,64.6,34.2,29.53,NNE,22,1.1,3.4,32,0.00,,,0.00,meteobridge,2013-04-08 12:51:00,
2013-04-08 15:56:00,64.8,33.4,29.56,NNW,338,2.5,2.9,31,0.00,,,0.00,meteobridge,2013-04-08 12:56:00,
2013-04-08 16:01:00,64.6,33.3,29.56,North,0,1.1,1.3,31,0.00,,,0.00,meteobridge,2013-04-08 13:01:00,
2013-04-08 16:06:00,64.6,34.2,29.56,West,270,0.0,2.2,32,0.00,,,0.00,meteobridge,2013-04-08 13:06:00,
2013-04-08 16:12:00,64.2,33.1,29.56,North,0,2.0,2.5,31,0.00,,,0.00,meteobridge,2013-04-08 13:12:00,
2013-04-08 16:17:00,63.9,32.7,29.56,North,0,1.3,1.6,31,0.00,,,0.00,meteobridge,2013-04-08 13:17:00,
2013-04-08 16:22:00,63.9,33.4,29.56,SSE,158,2.9,2.9,32,0.00,,,0.00,meteobridge,2013-04-08 13:22:00,
2013-04-08 16:27:00,63.3,33.8,29.56,WSW,248,1.3,2.2,33,0.00,,,0.00,meteobridge,2013-04-08 13:27:00,
2013-04-08 16:32:00,63.0,33.4,29.56,North,0,0.0,1.3,33,0.00,,,0.00,meteobridge,2013-04-08 13:32:00,
2013-04-08 16:37:00,62.6,33.1,29.56,North,0,1.1,2.2,33,0.00,,,0.00,meteobridge,2013-04-08 13:37:00,
2013-04-08 16:42:00,62.2,33.6,29.59,NNW,338,1.3,2.7,34,0.00,,,0.00,meteobridge,2013-04-08 13:42:00,
2013-04-08 16:47:00,62.2,33.6,29.59,East,90,2.0,2.2,34,0.00,,,0.00,meteobridge,2013-04-08 13:47:00,
2013-04-08 16:52:00,62.2,33.6,29.59,NNW,338,3.1,3.6,34,0.00,,,0.00,meteobridge,2013-04-08 13:52:00,
2013-04-08 16:57:00,61.9,33.3,29.59,NW,315,2.0,3.1,34,0.00,,,0.00,meteobridge,2013-04-08 13:57:00,
2013-04-08 17:02:00,61.9,33.3,29.59,North,0,2.5,4.3,34,0.00,,,0.00,meteobridge,2013-04-08 14:02:00,
2013-04-08 17:07:00,61.9,33.3,29.59,North,0,2.7,4.3,34,0.00,,,0.00,meteobridge,2013-04-08 14:07:00,
2013-04-08 17:12:00,61.5,33.6,29.56,WNW,292,2.9,3.6,35,0.00,,,0.00,meteobridge,2013-04-08 14:12:00,
2013-04-08 17:18:00,61.3,33.4,29.56,North,0,2.2,2.2,35,0.00,,,0.00,meteobridge,2013-04-08 14:18:00,
2013-04-08 17:23:00,61.2,34.0,29.56,NNE,22,2.0,2.0,36,0.00,,,0.00,meteobridge,2013-04-08 14:23:00,
2013-04-08 17:29:00,61.0,34.5,29.56,East,90,0.0,0.0,37,0.00,,,0.00,meteobridge,2013-04-08 14:29:00,
2013-04-08 17:34:00,60.6,34.2,29.56,East,90,2.2,3.1,37,0.00,,,0.00,meteobridge,2013-04-08 14:34:00,
2013-04-08 17:39:00,60.4,34.2,29.56,SE,135,1.3,2.2,37,0.00,,,0.00,meteobridge,2013-04-08 14:39:00,
2013-04-08 17:44:00,60.3,34.5,29.59,SE,135,2.9,4.0,38,0.00,,,0.00,meteobridge,2013-04-08 14:44:00,
2013-04-08 17:49:00,60.3,34.5,29.59,NNE,22,2.0,2.5,38,0.00,,,0.00,meteobridge,2013-04-08 14:49:00,
2013-04-08 17:54:00,60.3,34.5,29.59,East,90,2.9,2.9,38,0.00,,,0.00,meteobridge,2013-04-08 14:54:00,
2013-04-08 17:59:00,60.3,34.5,29.59,NNW,338,2.0,2.5,38,0.00,,,0.00,meteobridge,2013-04-08 14:59:00,
2013-04-08 18:04:00,60.3,34.5,29.59,SE,135,1.6,2.5,38,0.00,,,0.00,meteobridge,2013-04-08 15:04:00,
2013-04-08 18:10:00,60.1,34.3,29.59,WSW,248,1.1,2.0,38,0.00,,,0.00,meteobridge,2013-04-08 15:10:00,
2013-04-08 18:15:00,59.9,34.9,29.59,SSE,158,1.1,3.4,39,0.00,,,0.00,meteobridge,2013-04-08 15:15:00,
2013-04-08 18:20:00,59.7,35.4,29.59,South,180,0.9,2.0,40,0.00,,,0.00,meteobridge,2013-04-08 15:20:00,
2013-04-08 18:25:00,59.5,35.8,29.59,SSE,158,3.8,3.8,41,0.00,,,0.00,meteobridge,2013-04-08 15:25:00,
2013-04-08 18:31:00,59.4,35.8,29.62,SW,225,0.0,0.0,41,0.00,,,0.00,meteobridge,2013-04-08 15:31:00,
2013-04-08 18:36:00,59.4,36.3,29.62,SSE,158,0.0,0.0,42,0.00,,,0.00,meteobridge,2013-04-08 15:36:00,
2013-04-08 18:41:00,59.0,37.2,29.62,South,180,0.0,2.9,44,0.00,,,0.00,meteobridge,2013-04-08 15:41:00,
2013-04-08 18:47:00,59.0,37.2,29.62,SE,135,1.3,1.3,44,0.00,,,0.00,meteobridge,2013-04-08 15:47:00,
2013-04-08 18:52:00,58.8,37.6,29.62,ENE,68,2.2,2.9,45,0.00,,,0.00,meteobridge,2013-04-08 15:52:00,
2013-04-08 18:57:00,59.0,37.2,29.62,SSE,158,1.3,3.4,44,0.00,,,0.00,meteobridge,2013-04-08 15:57:00,
2013-04-08 19:02:00,59.2,37.4,29.62,South,180,2.0,2.7,44,0.00,,,0.00,meteobridge,2013-04-08 16:02:00,
2013-04-08 19:08:00,59.2,37.4,29.62,South,180,3.6,-999.0,44,0.00,,,0.00,meteobridge,2013-04-08 16:08:00,
2013-04-08 19:13:00,59.2,36.7,29.62,SW,225,3.4,3.4,43,0.00,,,0.00,meteobridge,2013-04-08 16:13:00,
2013-04-08 19:18:00,59.4,36.3,29.62,NNW,338,1.6,2.7,42,0.00,,,0.00,meteobridge,2013-04-08 16:18:00,
2013-04-08 19:23:00,59.4,36.3,29.62,NNE,22,1.6,2.0,42,0.00,,,0.00,meteobridge,2013-04-08 16:23:00,
2013-04-08 19:28:00,59.4,35.8,29.62,North,0,2.2,2.5,41,0.00,,,0.00,meteobridge,2013-04-08 16:28:00,
2013-04-08 19:33:00,59.4,35.1,29.62,North,0,0.0,2.2,40,0.00,,,0.00,meteobridge,2013-04-08 16:33:00,
2013-04-08 19:38:00,59.5,35.2,29.62,NNW,338,1.6,2.9,40,0.00,,,0.00,meteobridge,2013-04-08 16:38:00,
2013-04-08 19:43:00,59.5,35.2,29.62,East,90,0.0,2.0,40,0.00,,,0.00,meteobridge,2013-04-08 16:43:00,
2013-04-08 19:48:00,59.5,35.2,29.62,North,0,1.3,2.9,40,0.00,,,0.00,meteobridge,2013-04-08 16:48:00,
2013-04-08 19:53:00,59.5,34.5,29.62,NNW,338,1.1,1.6,39,0.00,,,0.00,meteobridge,2013-04-08 16:53:00,
2013-04-08 19:58:00,59.5,35.2,29.65,North,0,0.0,1.6,40,0.00,,,0.00,meteobridge,2013-04-08 16:58:00,
2013-04-08 20:03:00,59.5,35.2,29.65,ENE,68,2.0,2.0,40,0.00,,,0.00,meteobridge,2013-04-08 17:03:00,
2013-04-08 20:08:00,59.5,34.5,29.65,ESE,112,2.5,2.5,39,0.00,,,0.00,meteobridge,2013-04-08 17:08:00,
2013-04-08 20:13:00,59.5,34.5,29.65,NNW,338,1.6,1.6,39,0.00,,,0.00,meteobridge,2013-04-08 17:13:00,
2013-04-08 20:18:00,59.4,34.5,29.65,SSE,158,2.0,2.0,39,0.00,,,0.00,meteobridge,2013-04-08 17:18:00,
2013-04-08 20:24:00,59.4,34.5,29.65,SSE,158,0.9,1.3,39,0.00,,,0.00,meteobridge,2013-04-08 17:24:00,
2013-04-08 20:29:00,59.4,34.5,29.65,East,90,1.3,1.6,39,0.00,,,0.00,meteobridge,2013-04-08 17:29:00,
2013-04-08 20:34:00,59.2,34.3,29.65,East,90,0.9,2.0,39,0.00,,,0.00,meteobridge,2013-04-08 17:34:00,
2013-04-08 20:39:00,59.4,34.5,29.65,ESE,112,1.3,2.0,39,0.00,,,0.00,meteobridge,2013-04-08 17:39:00,
2013-04-08 20:44:00,59.2,34.3,29.65,SE,135,1.1,1.3,39,0.00,,,0.00,meteobridge,2013-04-08 17:44:00,
2013-04-08 20:50:00,59.2,34.3,29.65,NNE,22,2.0,2.0,39,0.00,,,0.00,meteobridge,2013-04-08 17:50:00,
2013-04-08 20:55:00,59.4,34.5,29.65,NE,45,4.3,4.3,39,0.00,,,0.00,meteobridge,2013-04-08 17:55:00,
2013-04-08 21:00:00,59.5,34.0,29.65,SSW,202,1.6,3.4,38,0.00,,,0.00,meteobridge,2013-04-08 18:00:00,
2013-04-08 21:05:00,59.5,34.0,29.65,East,90,2.0,2.0,38,0.00,,,0.00,meteobridge,2013-04-08 18:05:00,
2013-04-08 21:10:00,59.5,34.0,29.65,North,0,1.6,2.0,38,0.00,,,0.00,meteobridge,2013-04-08 18:10:00,
2013-04-08 21:15:00,59.7,34.2,29.65,NE,45,3.8,3.8,38,0.00,,,0.00,meteobridge,2013-04-08 18:15:00,
2013-04-08 21:20:00,59.7,33.4,29.65,North,0,0.9,2.5,37,0.00,,,0.00,meteobridge,2013-04-08 18:20:00,
2013-04-08 21:25:00,59.7,33.4,29.65,NNW,338,2.7,3.1,37,0.00,,,0.00,meteobridge,2013-04-08 18:25:00,
2013-04-08 21:30:00,59.5,33.3,29.68,East,90,2.5,3.6,37,0.00,,,0.00,meteobridge,2013-04-08 18:30:00,
2013-04-08 21:36:00,59.4,33.1,29.68,NE,45,1.6,1.6,37,0.00,,,0.00,meteobridge,2013-04-08 18:36:00,
2013-04-08 21:41:00,59.4,33.1,29.68,SE,135,1.1,1.6,37,0.00,,,0.00,meteobridge,2013-04-08 18:41:00,
2013-04-08 21:46:00,59.4,33.1,29.68,NNW,338,1.6,2.0,37,0.00,,,0.00,meteobridge,2013-04-08 18:46:00,
2013-04-08 21:51:00,59.2,32.9,29.68,North,0,0.9,2.7,37,0.00,,,0.00,meteobridge,2013-04-08 18:51:00,
2013-04-08 21:56:00,59.2,33.6,29.68,NNE,22,0.9,2.0,38,0.00,,,0.00,meteobridge,2013-04-08 18:56:00,
2013-04-08 22:01:00,59.0,33.4,29.68,North,0,1.3,1.3,38,0.00,,,0.00,meteobridge,2013-04-08 19:01:00,
2013-04-08 22:06:00,59.0,33.4,29.68,NNE,22,0.0,1.3,38,0.00,,,0.00,meteobridge,2013-04-08 19:06:00,
2013-04-08 22:11:00,58.8,33.3,29.71,NE,45,0.0,0.9,38,0.00,,,0.00,meteobridge,2013-04-08 19:11:00,
2013-04-08 22:17:00,58.8,33.3,29.71,East,90,0.9,1.1,38,0.00,,,0.00,meteobridge,2013-04-08 19:17:00,
2013-04-08 22:22:00,58.6,33.8,29.71,North,0,2.7,3.6,39,0.00,,,0.00,meteobridge,2013-04-08 19:22:00,
2013-04-08 22:27:00,58.3,33.4,29.68,NE,45,1.6,2.5,39,0.00,,,0.00,meteobridge,2013-04-08 19:27:00,
2013-04-08 22:32:00,58.3,33.4,29.68,NNE,22,1.6,2.2,39,0.00,,,0.00,meteobridge,2013-04-08 19:32:00,
2013-04-08 22:38:00,58.1,33.3,29.68,NNW,338,2.0,2.5,39,0.00,,,0.00,meteobridge,2013-04-08 19:38:00,
2013-04-08 22:43:00,58.1,33.3,29.68,North,0,0.9,1.3,39,0.00,,,0.00,meteobridge,2013-04-08 19:43:00,
2013-04-08 22:48:00,57.9,33.1,29.68,North,0,0.0,0.0,39,0.00,,,0.00,meteobridge,2013-04-08 19:48:00,
2013-04-08 22:53:00,57.9,33.8,29.68,NE,45,1.1,1.3,40,0.00,,,0.00,meteobridge,2013-04-08 19:53:00,
2013-04-08 22:58:00,57.9,33.8,29.71,NNE,22,1.6,2.0,40,0.00,,,0.00,meteobridge,2013-04-08 19:58:00,
2013-04-08 23:03:00,57.9,33.8,29.71,NNE,22,0.0,1.6,40,0.00,,,0.00,meteobridge,2013-04-08 20:03:00,
2013-04-08 23:08:00,57.9,33.8,29.71,NNE,22,0.0,0.9,40,0.00,,,0.00,meteobridge,2013-04-08 20:08:00,
2013-04-08 23:13:00,57.9,33.8,29.71,NNE,22,0.0,1.3,40,0.00,,,0.00,meteobridge,2013-04-08 20:13:00,
2013-04-08 23:18:00,57.7,33.6,29.71,NNE,22,0.0,1.1,40,0.00,,,0.00,meteobridge,2013-04-08 20:18:00,
2013-04-08 23:23:00,57.9,34.3,29.71,NE,45,0.0,0.0,41,0.00,,,0.00,meteobridge,2013-04-08 20:23:00,
2013-04-08 23:28:00,58.1,34.5,29.71,NNE,22,0.0,1.1,41,0.00,,,0.00,meteobridge,2013-04-08 20:28:00,
2013-04-08 23:33:00,58.1,34.5,29.71,NNW,338,0.9,2.0,41,0.00,,,0.00,meteobridge,2013-04-08 20:33:00,
2013-04-08 23:38:00,58.3,34.7,29.71,NNE,22,0.0,1.6,41,0.00,,,0.00,meteobridge,2013-04-08 20:38:00,
2013-04-08 23:43:00,58.3,34.7,29.68,NNW,338,0.9,1.6,41,0.00,,,0.00,meteobridge,2013-04-08 20:43:00,
2013-04-08 23:48:00,58.3,35.2,29.68,North,0,1.1,1.3,42,0.00,,,0.00,meteobridge,2013-04-08 20:48:00,
2013-04-08 23:53:00,58.3,35.2,29.68,North,0,0.0,2.0,42,0.00,,,0.00,meteobridge,2013-04-08 20:53:00,
2013-04-08 23:58:00,58.3,36.0,29.68,NNW,338,0.0,2.5,43,0.00,,,0.00,meteobridge,2013-04-08 20:58:00,